KAIB

Details ICAO KAIB
Name HOPKINS FLD
Region United States
Timezone America/Denver (UTC-6.0)
Plans Departing 0
Arriving 1
Stats Elevation 5,940 ft / 1,811 m (AMSL)
Location 38.238751° -108.563215°
Runways 2
Magnetic Variation 9.692° E
Sunrise 2018-05-24 11:58:05 UTC / 2018-05-24 05:58:05 Local
Sunset 2018-05-25 02:27:02 UTC / 2018-05-24 20:27:02 Local
Advertisement - Login to hide

Runways

ID Width Length Bearing (true) Bearing (mag) Surface Threshold Offset Overrun Length
05 75 ft / 23 m 4,594 ft / 1,400 m 58.42° 48.73° Asphalt 0 ft / 0 m 0 ft / 0 m
11 80 ft / 24 m 3,995 ft / 1,218 m 124.02° 114.33° Dirt 0 ft / 0 m 0 ft / 0 m
23 75 ft / 23 m 4,594 ft / 1,400 m 238.43° 228.74° Asphalt 0 ft / 0 m 0 ft / 0 m
29 80 ft / 24 m 3,995 ft / 1,218 m 304.02° 294.33° Dirt 0 ft / 0 m 0 ft / 0 m

Map

Weather


0- 5 10 15 20 25 30 35+ Temperature / ° C

Clouds and Precipitation
Forecast for 2018-05-25 00:00 UTC. Updated 4 hours ago

Ground ~20,000 ft ~40,000 ft Winds

METAR

KAIB 250335Z AUTO 20003KT 10SM CLR 21/M12 A3016 RMK AO2

TAF

Not found

Frequencies

Recorded 132.52 MHz AWOS 3
Unicom 122.80 MHz CTAF/UNICOM
Warning: Do not use this data for real-world aviation or navigation. No guarantee of current accuracy is given.